NQ9B Weather Reports


Display with metric or nautical units.
time (UTC)temp
F
wind
direction
speed
MPH
gust
MPH
rain 1hr
in
rain 24hr
in
rain mn
in
humidity
%
barometer
mb
20210922112537 71 334 2.0 8.0 0.00 0.00 0.00 40 1026.8
20210922112043 71 355 2.0 8.0 0.00 0.00 0.00 40 1026.8
20210922111541 71 33 2.0 9.0 0.00 0.00 0.00 40 1026.7
20210922111035 71 44 1.0 9.0 0.00 0.00 0.00 40 1026.5
20210922110539 71 119 1.0 9.0 0.00 0.00 0.00 40 1026.3
20210922110050 71 118 1.0 7.0 0.00 0.00 0.00 39 1026.4
20210922105534 71 90 1.0 9.0 0.00 0.00 0.00 40 1026.2
20210922105031 71 91 2.0 9.0 0.00 0.00 0.00 40 1026.2
20210922104606 71 116 1.0 9.0 0.00 0.00 0.00 39 1026.0
20210922104031 71 74 1.0 7.0 0.00 0.00 0.00 40 1026.0
20210922103531 72 151 1.0 9.0 0.00 0.00 0.00 39 1026.0
20210922103045 72 138 2.0 9.0 0.00 0.00 0.00 39 1026.0
20210922102545 72 115 2.0 7.0 0.00 0.00 0.00 39 1026.0
20210922102038 72 50 1.0 7.0 0.00 0.00 0.00 39 1025.8
20210922101626 72 360 2.0 7.0 0.00 0.00 0.00 39 1025.8
20210922101040 72 0 2.0 9.0 0.00 0.00 0.00 39 1025.7
20210922100531 72 116 1.0 9.0 0.00 0.00 0.00 39 1025.6
20210922100110 72 132 2.0 10.0 0.00 0.00 0.00 39 1025.5
20210922095535 72 307 2.0 10.0 0.00 0.00 0.00 39 1025.2
20210922095032 72 36 2.0 8.0 0.00 0.00 0.00 39 1025.2
20210922094615 72 350 2.0 8.0 0.00 0.00 0.00 38 1025.2
20210922094030 72 128 1.0 8.0 0.00 0.00 0.00 38 1025.3
20210922093532 72 78 2.0 8.0 0.00 0.00 0.00 38 1025.3
20210922093043 73 36 2.0 7.0 0.00 0.00 0.00 37 1025.2
20210922092536 73 105 1.0 7.0 0.00 0.00 0.00 37 1025.1
20210922092037 73 152 1.0 10.0 0.00 0.00 0.00 37 1025.1
20210922091611 73 318 1.0 10.0 0.00 0.00 0.00 37 1025.1
20210922091044 73 86 2.0 8.0 0.00 0.00 0.00 37 1025.1
20210922090537 73 165 2.0 8.0 0.00 0.00 0.00 37 1025.0
20210922090059 73 105 1.0 5.0 0.00 0.00 0.00 37 1025.0
20210922085544 73 70 1.0 7.0 0.00 0.00 0.00 37 1025.0
20210922085033 73 311 1.0 7.0 0.00 0.00 0.00 37 1024.8
20210922084613 74 101 1.0 6.0 0.00 0.00 0.00 37 1024.8
20210922084034 74 345 1.0 6.0 0.00 0.00 0.00 37 1024.8
20210922083553 74 330 1.0 6.0 0.00 0.00 0.00 37 1024.7
20210922083059 74 61 1.0 6.0 0.00 0.00 0.00 36 1024.7
20210922082534 74 64 0.0 5.0 0.00 0.00 0.00 36 1024.7
20210922082038 74 84 1.0 5.0 0.00 0.00 0.00 36 1024.6
20210922081707 74 71 1.0 6.0 0.00 0.00 0.00 36 1024.6
20210922081039 74 101 1.0 8.0 0.00 0.00 0.00 36 1024.7
20210922080531 75 46 1.0 9.0 0.00 0.00 0.00 35 1024.6
20210922080151 75 49 1.0 9.0 0.00 0.00 0.00 36 1024.5
20210922075535 75 125 2.0 11.0 0.00 0.00 0.00 35 1024.4
20210922075033 75 60 2.0 11.0 0.00 0.00 0.00 35 1024.5
20210922074547 75 101 2.0 9.0 0.00 0.00 0.00 35 1024.3
20210922074036 75 129 2.0 9.0 0.00 0.00 0.00 35 1024.3
20210922073546 75 38 1.0 9.0 0.00 0.00 0.00 35 1024.4
20210922073137 76 329 2.0 9.0 0.00 0.00 0.00 35 1024.1
20210922072532 76 40 2.0 9.0 0.00 0.00 0.00 34 1023.9
20210922072039 76 327 2.0 13.0 0.00 0.00 0.00 34 1024.0
20210922071702 76 29 3.0 15.0 0.00 0.00 0.00 34 1024.0
20210922071033 76 128 2.0 15.0 0.00 0.00 0.00 34 1024.0
20210922070605 76 355 1.0 8.0 0.00 0.00 0.00 34 1024.0
20210922070050 76 60 2.0 11.0 0.00 0.00 0.00 33 1023.9
20210922065536 76 312 3.0 11.0 0.00 0.00 0.00 33 1024.0
20210922065030 77 69 2.0 11.0 0.00 0.00 0.00 33 1023.9
20210922064632 77 42 2.0 10.0 0.00 0.00 0.00 33 1023.9
20210922064036 77 34 1.0 10.0 0.00 0.00 0.00 32 1024.0
20210922063531 77 0 2.0 10.0 0.00 0.00 0.00 32 1024.1
20210922063054 77 310 2.0 9.0 0.00 0.00 0.00 32 1024.0
20210922062530 77 360 1.0 11.0 0.00 0.00 0.00 32 1023.9
20210922062034 78 223 2.0 11.0 0.00 0.00 0.00 32 1023.8
20210922061558 78 200 1.0 10.0 0.00 0.00 0.00 32 1024.0
20210922061038 78 106 3.0 9.0 0.00 0.00 0.00 32 1024.0
20210922060530 78 269 2.0 9.0 0.00 0.00 0.00 32 1024.0
20210922060152 78 68 2.0 14.0 0.00 0.00 0.00 32 1023.9
20210922055534 79 82 2.0 14.0 0.00 0.00 0.00 32 1023.9
20210922055056 79 5 3.0 10.0 0.00 0.00 0.00 32 1023.7
20210922054622 79 184 1.0 4.0 0.00 0.00 0.00 33 1023.7
20210922054046 79 92 1.0 9.0 0.00 0.00 0.00 33 1023.8
20210922053546 79 0 1.0 9.0 0.00 0.00 0.00 33 1023.8
20210922053045 79 107 1.0 9.0 0.00 0.00 0.00 32 1024.0
20210922052549 79 26 1.0 9.0 0.00 0.00 0.00 32 1024.0
20210922052040 80 0 1.0 9.0 0.00 0.00 0.00 32 1024.0
20210922051609 80 348 2.0 8.0 0.00 0.00 0.00 32 1024.0
20210922051046 80 57 1.0 6.0 0.00 0.00 0.00 33 1024.0
20210922050533 80 113 1.0 6.0 0.00 0.00 0.00 33 1024.0
20210922050100 80 87 1.0 8.0 0.00 0.00 0.00 34 1024.1
20210922045541 80 58 2.0 8.0 0.00 0.00 0.00 34 1023.9
20210922045039 81 0 1.0 7.0 0.00 0.00 0.00 35 1023.9
20210922044608 81 61 1.0 7.0 0.00 0.00 0.00 36 1023.9
20210922044100 81 71 1.0 6.0 0.00 0.00 0.00 36 1024.0
20210922043535 81 0 1.0 9.0 0.00 0.00 0.00 36 1024.1
20210922043054 81 59 1.0 9.0 0.00 0.00 0.00 36 1024.0
20210922042558 81 132 2.0 6.0 0.00 0.00 0.00 36 1024.0
20210922042034 81 0 1.0 7.0 0.00 0.00 0.00 37 1024.0
20210922041625 81 68 2.0 7.0 0.00 0.00 0.00 37 1023.9
20210922041041 81 65 1.0 6.0 0.00 0.00 0.00 38 1024.0
20210922040535 82 111 1.0 6.0 0.00 0.00 0.00 38 1024.0
20210922040228 82 325 1.0 8.0 0.00 0.00 0.00 39 1023.8
20210922035533 82 10 2.0 8.0 0.00 0.00 0.00 40 1023.7
20210922035034 82 118 0.0 8.0 0.00 0.00 0.00 40 1023.6
20210922034615 82 115 2.0 8.0 0.00 0.00 0.00 41 1023.6
20210922034035 82 97 1.0 6.0 0.00 0.00 0.00 41 1023.4
20210922033533 82 79 2.0 6.0 0.00 0.00 0.00 41 1023.1
20210922033049 82 170 1.0 5.0 0.00 0.00 0.00 42 1023.0
20210922032537 82 96 1.0 5.0 0.00 0.00 0.00 43 1022.9
20210922032041 82 83 1.0 5.0 0.00 0.00 0.00 44 1022.8
20210922031626 82 0 1.0 5.0 0.00 0.00 0.00 45 1022.7
20210922031034 82 0 1.0 4.0 0.00 0.00 0.00 45 1022.6
20210922030534 82 109 1.0 6.0 0.00 0.00 0.00 46 1022.5
20210922030106 82 193 1.0 6.0 0.00 0.00 0.00 45 1022.4
20210922025530 83 30 1.0 6.0 0.00 0.00 0.00 45 1022.4
20210922025035 83 80 1.0 6.0 0.00 0.00 0.00 45 1022.4
20210922024603 83 88 1.0 6.0 0.00 0.00 0.00 45 1022.3
20210922024053 83 164 1.0 5.0 0.00 0.00 0.00 46 1022.2
20210922023529 83 128 1.0 5.0 0.00 0.00 0.00 46 1022.2
20210922023054 83 44 1.0 4.0 0.00 0.00 0.00 47 1022.1
20210922022533 83 53 1.0 6.0 0.00 0.00 0.00 47 1022.0
20210922022029 83 87 1.0 7.0 0.00 0.00 0.00 49 1022.0
20210922021645 83 0 1.0 7.0 0.00 0.00 0.00 49 1022.0
20210922021030 83 78 0.0 4.0 0.00 0.00 0.00 49 1022.0
20210922020552 83 58 0.0 6.0 0.00 0.00 0.00 50 1021.8
20210922020120 83 80 1.0 6.0 0.00 0.00 0.00 50 1021.6
20210922015540 84 0 1.0 5.0 0.00 0.00 0.00 50 1021.6
20210922015040 84 0 1.0 5.0 0.00 0.00 0.00 50 1021.5
20210922014556 84 104 1.0 6.0 0.00 0.00 0.00 50 1021.4
20210922014037 84 0 1.0 6.0 0.00 0.00 0.00 51 1021.4
20210922013530 84 28 1.0 3.0 0.00 0.00 0.00 50 1021.3
20210922013138 84 18 0.0 3.0 0.00 0.00 0.00 51 1021.1
20210922012537 84 0 1.0 3.0 0.00 0.00 0.00 51 1021.1
20210922012034 84 25 1.0 3.0 0.00 0.00 0.00 51 1021.0
20210922011604 84 46 1.0 3.0 0.00 0.00 0.00 51 1020.9
20210922011035 84 111 0.0 5.0 0.00 0.00 0.00 51 1020.9
20210922010531 84 57 1.0 5.0 0.00 0.00 0.00 50 1020.8
20210922010203 84 104 0.0 3.0 0.00 0.00 0.00 50 1020.8
20210922005529 84 46 0.0 3.0 0.00 0.00 0.00 50 1020.8
20210922005032 84 0 0.0 3.0 0.00 0.00 0.00 50 1020.5
20210922004615 84 81 0.0 3.0 0.00 0.00 0.00 50 1020.5
20210922004032 84 340 1.0 4.0 0.00 0.00 0.00 51 1020.4
20210922003533 84 28 0.0 4.0 0.00 0.00 0.00 50 1020.4
20210922003116 84 0 0.0 3.0 0.00 0.00 0.00 51 1020.2
20210922002530 84 0 0.0 3.0 0.00 0.00 0.00 51 1020.2
20210922002036 84 342 0.0 3.0 0.00 0.00 0.00 50 1020.1
20210922001632 84 0 0.0 3.0 0.00 0.00 0.00 51 1020.0
20210922001031 84 0 0.0 3.0 0.00 0.00 0.00 50 1019.9
20210922000530 85 0 1.0 3.0 0.00 0.00 0.00 50 1019.9
20210922000120 85 320 0.0 3.0 0.00 0.00 0.00 50 1019.8
20210921235529 85 0 1.0 5.0 0.00 0.00 0.00 50 1019.8
20210921235030 85 355 0.0 5.0 0.00 0.00 0.00 50 1019.9
20210921234615 85 360 0.0 9.0 0.00 0.00 0.00 49 1019.9
20210921234036 85 0 2.0 9.0 0.00 0.00 0.00 49 1019.8
20210921233533 85 76 0.0 4.0 0.00 0.00 0.00 49 1019.8
20210921233039 85 329 0.0 4.0 0.00 0.00 0.00 49 1019.7
20210921232532 86 59 1.0 4.0 0.00 0.00 0.00 49 1019.6
20210921232039 86 0 1.0 4.0 0.00 0.00 0.00 49 1019.7
20210921231606 86 115 1.0 4.0 0.00 0.00 0.00 48 1019.6
20210921231034 86 350 0.0 4.0 0.00 0.00 0.00 49 1019.7
20210921230533 86 53 1.0 5.0 0.00 0.00 0.00 48 1019.8
20210921230059 86 351 1.0 5.0 0.00 0.00 0.00 49 1019.7
20210921225532 86 47 2.0 5.0 0.00 0.00 0.00 49 1019.6
20210921225035 86 15 0.0 5.0 0.00 0.00 0.00 48 1019.4
20210921224600 86 42 1.0 5.0 0.00 0.00 0.00 48 1019.3
20210921224029 86 30 1.0 5.0 0.00 0.00 0.00 48 1019.4
20210921223534 86 36 1.0 6.0 0.00 0.00 0.00 49 1019.4
20210921223100 86 117 1.0 8.0 0.00 0.00 0.00 49 1019.3
20210921222534 87 5 2.0 8.0 0.00 0.00 0.00 48 1019.3
20210921222033 88 15 2.0 6.0 0.00 0.00 0.00 52 1019.2
20210921221553 89 318 1.0 4.0 0.00 0.00 0.00 59 1019.0
20210921221033 89 52 1.0 4.0 0.00 0.00 0.00 59 1018.9
20210921220534 89 51 0.0 7.0 0.00 0.00 0.00 60 1018.9
20210921220100 88 94 1.0 7.0 0.00 0.00 0.00 61 1018.9
20210921215534 89 82 0.0 7.0 0.00 0.00 0.00 61 1018.9
20210921215039 89 101 2.0 9.0 0.00 0.00 0.00 60 1018.7
20210921214547 89 350 1.0 9.0 0.00 0.00 0.00 60 1018.9
20210921214047 89 95 1.0 6.0 0.00 0.00 0.00 61 1018.9
20210921213531 88 105 1.0 6.0 0.00 0.00 0.00 62 1018.8
20210921213056 87 94 1.0 5.0 0.00 0.00 0.00 65 1018.8
20210921212533 85 74 0.0 6.0 0.00 0.00 0.00 65 1018.9
20210921212034 86 11 2.0 7.0 0.00 0.00 0.00 63 1018.9
20210921211616 88 59 2.0 9.0 0.00 0.00 0.00 53 1018.8
20210921211033 90 59 3.0 9.0 0.00 0.00 0.00 58 1018.7
20210921210536 90 225 2.0 9.0 0.00 0.00 0.00 58 1018.5
20210921210216 92 34 2.0 8.0 0.00 0.00 0.00 56 1018.4
20210921205552 93 0 1.0 8.0 0.00 0.00 0.00 51 1018.2
20210921205034 92 0 0.0 2.0 0.00 0.00 0.00 57 1018.1
20210921204612 90 0 0.0 2.0 0.00 0.00 0.00 63 1018.1
20210921204106 88 0 0.0 2.0 0.00 0.00 0.00 62 1018.1
20210921203554 89 0 0.0 4.0 0.00 0.00 0.00 61 1018.1
20210921203110 91 0 0.0 4.0 0.00 0.00 0.00 55 1018.2
20210921202533 93 82 1.0 3.0 0.00 0.00 0.00 51 1018.2
20210921202039 94 30 0.0 3.0 0.00 0.00 0.00 50 1018.4
20210921201543 94 360 1.0 4.0 0.00 0.00 0.00 50 1018.3
20210921201033 93 0 1.0 4.0 0.00 0.00 0.00 51 1018.5
20210921200536 93 99 0.0 3.0 0.00 0.00 0.00 51 1018.5
20210921200101 93 96 0.0 4.0 0.00 0.00 0.00 50 1018.6
20210921195601 94 165 1.0 6.0 0.00 0.00 0.00 50 1018.7
20210921195036 92 0 1.0 6.0 0.00 0.00 0.00 51 1018.8
20210921194613 93 0 0.0 6.0 0.00 0.00 0.00 49 1018.9
20210921194034 93 0 1.0 6.0 0.00 0.00 0.00 49 1018.9
20210921193533 93 66 1.0 6.0 0.00 0.00 0.00 50 1019.1
20210921193123 93 0 0.0 2.0 0.00 0.00 0.00 51 1019.1
20210921192538 94 94 0.0 6.0 0.00 0.00 0.00 49 1019.2
20210921192118 93 344 1.0 6.0 0.00 0.00 0.00 50 1019.3
20210921191642 94 80 0.0 3.0 0.00 0.00 0.00 50 1019.5
20210921191034 94 0 1.0 4.0 0.00 0.00 0.00 49 1019.5
20210921190534 95 69 1.0 4.0 0.00 0.00 0.00 49 1019.6
20210921190118 95 190 0.0 4.0 0.00 0.00 0.00 49 1019.7
20210921185539 94 0 0.0 4.0 0.00 0.00 0.00 48 1019.7
20210921185044 93 310 0.0 2.0 0.00 0.00 0.00 48 1019.7
20210921184618 93 0 0.0 2.0 0.00 0.00 0.00 52 1019.8
20210921184107 91 0 0.0 2.0 0.00 0.00 0.00 54 1019.8
20210921183532 90 204 0.0 1.0 0.00 0.00 0.00 56 1019.8
20210921183052 91 0 0.0 1.0 0.00 0.00 0.00 54 1019.9
20210921182539 91 0 0.0 1.0 0.00 0.00 0.00 54 1019.9
20210921182040 91 0 0.0 3.0 0.00 0.00 0.00 55 1020.0
20210921181615 91 0 0.0 6.0 0.00 0.00 0.00 52 1019.9
20210921181042 91 44 1.0 6.0 0.00 0.00 0.00 56 1019.8
20210921180535 90 86 1.0 3.0 0.00 0.00 0.00 55 1019.8
20210921180142 90 83 0.0 3.0 0.00 0.00 0.00 60 1019.8
20210921175535 91 0 0.0 2.0 0.00 0.00 0.00 60 1019.9
20210921175036 90 0 0.0 3.0 0.00 0.00 0.00 60 1019.9
20210921174626 90 0 0.0 3.0 0.00 0.00 0.00 59 1019.9
20210921174034 91 98 0.0 2.0 0.00 0.00 0.00 59 1020.0
20210921173534 90 0 0.0 3.0 0.00 0.00 0.00 61 1020.0
20210921173215 90 51 0.0 4.0 0.00 0.00 0.00 61 1020.0
20210921172534 89 55 0.0 4.0 0.00 0.00 0.00 63 1020.1
20210921172032 89 107 0.0 4.0 0.00 0.00 0.00 64 1020.1
20210921171555 88 0 1.0 4.0 0.00 0.00 0.00 64 1020.2
20210921171033 88 0 0.0 2.0 0.00 0.00 0.00 64 1020.2
20210921170542 88 67 0.0 2.0 0.00 0.00 0.00 64 1020.2
20210921170052 87 11 0.0 2.0 0.00 0.00 0.00 65 1020.2
20210921165535 87 0 0.0 4.0 0.00 0.00 0.00 66 1020.2
20210921165041 87 82 0.0 4.0 0.00 0.00 0.00 67 1020.3
20210921164601 87 0 0.0 3.0 0.00 0.00 0.00 67 1020.3
20210921164034 86 0 0.0 2.0 0.00 0.00 0.00 67 1020.3
20210921163531 85 148 0.0 2.0 0.00 0.00 0.00 68 1020.3
20210921163158 85 86 0.0 2.0 0.00 0.00 0.00 68 1020.4
20210921162546 85 0 0.0 2.0 0.00 0.00 0.00 73 1020.3
20210921162034 85 0 0.0 2.0 0.00 0.00 0.00 73 1020.2
20210921161553 84 44 0.0 2.0 0.00 0.00 0.00 72 1020.1
20210921161038 84 43 0.0 3.0 0.00 0.00 0.00 73 1020.0
20210921160531 84 0 0.0 3.0 0.00 0.00 0.00 74 1020.0
20210921160106 84 0 0.0 2.0 0.00 0.00 0.00 74 1020.0
20210921155533 84 114 0.0 2.0 0.00 0.00 0.00 74 1019.9
20210921155033 83 0 0.0 1.0 0.00 0.00 0.00 75 1019.8
20210921154619 82 80 0.0 1.0 0.00 0.00 0.00 76 1019.8
20210921154039 83 0 0.0 1.0 0.00 0.00 0.00 76 1019.7
20210921153532 82 80 0.0 2.0 0.00 0.00 0.00 76 1019.7
20210921153146 82 0 0.0 3.0 0.00 0.00 0.00 76 1019.7
20210921152553 82 78 0.0 3.0 0.00 0.00 0.00 77 1019.7
20210921152036 82 0 0.0 2.0 0.00 0.00 0.00 78 1019.6
20210921151549 81 115 0.0 2.0 0.00 0.00 0.00 78 1019.5
20210921151031 81 0 0.0 2.0 0.00 0.00 0.00 79 1019.5
20210921150606 80 0 0.0 1.0 0.00 0.00 0.00 81 1019.4
20210921150048 80 184 0.0 1.0 0.00 0.00 0.00 81 1019.4
20210921145543 79 0 0.0 1.0 0.00 0.00 0.00 82 1019.2
20210921145032 80 0 0.0 1.0 0.00 0.00 0.00 81 1019.2
20210921144650 79 0 0.0 1.0 0.00 0.00 0.00 81 1019.1
20210921144035 80 0 0.0 2.0 0.00 0.00 0.00 81 1019.1
20210921143544 80 0 0.0 2.0 0.00 0.00 0.00 80 1018.8
20210921143114 80 0 0.0 1.0 0.00 0.00 0.00 81 1018.7
20210921142531 80 0 0.0 1.0 0.00 0.00 0.00 82 1018.7
20210921142031 80 0 0.0 1.0 0.00 0.00 0.00 83 1018.8
20210921141613 79 0 0.0 1.0 0.00 0.00 0.00 82 1018.7
20210921141033 79 0 0.0 1.0 0.00 0.00 0.00 84 1018.7
20210921140536 79 0 0.0 2.0 0.00 0.00 0.00 84 1018.7
20210921140113 79 0 0.0 2.0 0.00 0.00 0.00 85 1018.7
20210921135532 78 0 0.0 1.0 0.00 0.00 0.00 86 1018.7
20210921135032 78 0 0.0 1.0 0.00 0.00 0.00 86 1018.6
20210921134604 78 0 0.0 1.0 0.00 0.00 0.00 86 1018.5
20210921134032 78 0 0.0 1.0 0.00 0.00 0.00 87 1018.6
20210921133532 78 0 0.0 0.0 0.00 0.00 0.00 88 1018.4
20210921133224 77 0 0.0 0.0 0.00 0.00 0.00 89 1018.4
20210921132537 77 0 0.0 0.0 0.00 0.00 0.00 89 1018.3
20210921132034 76 0 0.0 0.0 0.00 0.00 0.00 90 1018.2
20210921131546 76 0 0.0 0.0 0.00 0.00 0.00 90 1018.1
20210921131033 76 0 0.0 0.0 0.00 0.00 0.00 90 1018.0
20210921130540 75 0 0.0 0.0 0.00 0.00 0.00 90 1018.0
20210921130047 75 0 0.0 0.0 0.00 0.00 0.00 91 1017.9
20210921125532 75 0 0.0 0.0 0.00 0.00 0.00 91 1017.8
20210921125046 75 0 0.0 0.0 0.00 0.00 0.00 91 1017.6
20210921124603 75 0 0.0 0.0 0.00 0.00 0.00 90 1017.5
20210921124037 75 0 0.0 0.0 0.00 0.00 0.00 91 1017.4
20210921123533 75 0 0.0 0.0 0.00 0.00 0.00 90 1017.3
20210921123041 75 0 0.0 0.0 0.00 0.00 0.00 90 1017.4
20210921122535 75 0 0.0 0.0 0.00 0.00 0.00 90 1017.2
20210921122049 76 0 0.0 0.0 0.00 0.00 0.00 90 1017.1
20210921121547 76 0 0.0 0.0 0.00 0.00 0.00 90 1017.2
20210921121032 76 0 0.0 1.0 0.00 0.00 0.00 90 1017.1
20210921120530 76 0 0.0 1.0 0.00 0.00 0.00 89 1017.0
20210921120110 76 190 0.0 0.0 0.00 0.00 0.00 89 1016.9
20210921115530 76 0 0.0 0.0 0.00 0.00 0.00 89 1017.0
20210921115030 76 0 0.0 0.0 0.00 0.00 0.00 89 1016.7
20210921114615 76 0 0.0 0.0 0.00 0.00 0.00 88 1016.7
20210921114032 76 0 0.0 0.0 0.00 0.00 0.00 88 1016.7
20210921113537 77 0 0.0 0.0 0.00 0.00 0.00 88 1016.7
20210921113114 77 0 0.0 0.0 0.00 0.00 0.00 88 1016.6
20210921112612 77 0 0.0 0.0 0.00 0.00 0.00 88 1016.4